Location: Bagnolo San Vito
(45.0833°N, 10.8833°E)
Time: 00:34:11
(UTC+00:00)

GP-B - Pass Details

Date: 03 March 2021
Orbit: 631 x 635 km, 89.8° (Epoch: 17 April)

Event Time Altitude Azimuth Distance (km) Brightness Sun altitude
Rises 17:44:27 0° 148° (SSE) 2,918 6.2 -7.5°
Reaches altitude 10° 17:46:54 10° 136° (SE) 2,016 5.3 -7.9°
Maximum altitude 17:50:38 27° 78° (ENE) 1,219 4.0 -8.6°
Drops below altitude 10° 17:54:23 10° 21° (NNE) 2,031 5.5 -9.2°
Sets 17:56:52 0° 10° (N) 2,944 6.4 -9.7°
